QPF
0.01 0.02 0.02 0.02 0.01 0.02 0.01 0.02 0.02 0.02 0.03 0.04 0.04 0.04 0.04 0.04 0.03 0.03 0.03 0.03 0.02 0.02 0.02 0.03 0.03 0.03 0.03 0.03 0.04 0.04 0.04 0.04 0.03 0.02 0.02 0.03 0.03 0.03 0.02 0.02 0.02 0.02 0.02
0.01 0.01 0.01 0.01 0.01 0.02 0.01 0.02 0.02 0.02 0.02 0.03 0.03 0.03 0.03 0.03 0.04 0.04 0.04 0.03 0.04 0.04 0.05 0.05 0.04 0.04 0.04 0.04 0.04 0.04 0.04 0.04 0.04 0.03 0.03 0.03 0.04 0.04 0.04 0.03 0.02 0.02 0.02
0.01 0.02 0.02 0.02 0.02 0.02 0.02 0.02 0.02 0.02 0.02 0.02 0.01 0.02 0.02 0.03 0.04 0.04 0.04 0.04 0.04 0.05 0.06 0.05 0.04 0.03 0.03 0.03 0.04 0.04 0.04 0.03 0.04 0.04 0.03 0.03 0.03 0.04 0.04 0.04 0.04 0.04 0.03
0.01 0.02 0.04 0.04 0.03 0.04 0.03 0.03 0.02 0.01 0.01 0.02 0.02 0.02 0.02 0.02 0.03 0.03 0.03 0.03 0.03 0.03 0.03 0.02 0.01 0.01 0.01 0.02 0.03 0.03 0.03 0.03 0.03 0.03 0.03 0.03 0.02 0.03 0.04 0.03 0.04 0.04 0.04
0.01 0.01 0.01 0.02 0.02 0.03 0.02 0.02 0.02 0.01 0.01 0.01 0.01 0.01 0.01 0.01 0.01 0.01 0.01 0.01 0.02 0.02 0.01 0.01 0.01 0.01 0.01 0.01 0.02 0.03 0.03 0.03 0.03 0.03 0.03 0.03 0.03 0.03 0.04 0.04 0.04 0.04 0.04
0.01 0.01 0.01 0.01 0.01 0.01 0.01 0.01 0.01 0.01 0.01 0.01 0.02 0.02 0.02 0.01 0.01 0.01 0.02 0.02 0.02 0.02 0.02 0.01 0.01 0.01 0.01 0.01 0.01 0.01 0.02 0.02 0.02 0.02 0.02 0.02 0.02 0.03 0.04 0.05 0.05 0.04 0.05
0.01 0.02 0.02 0.01 0.01 0.01 0.02 0.02 0.02 0.02 0.02 0.02 0.02 0.01 0.01 0.00 0.01 0.01 0.02 0.02 0.01 0.02 0.02 0.03 0.02 0.01 0.01 0.01 0.01 0.01 0.02 0.02 0.02 0.02 0.02 0.02 0.03 0.03 0.04 0.05 0.06 0.07 0.07
0.01 0.02 0.02 0.02 0.01 0.01 0.02 0.01 0.01 0.01 0.01 0.01 0.01 0.01 0.01 0.01 0.00 0.01 0.02 0.03 0.02 0.02 0.02 0.03 0.03 0.02 0.03 0.03 0.03 0.02 0.02 0.02 0.02 0.02 0.02 0.02 0.02 0.03 0.04 0.05 0.06 0.06 0.04
0.02 0.03 0.02 0.02 0.02 0.02 0.02 0.01 0.01 0.01 0.01 0.01 0.02 0.01 0.01 0.01 0.01 0.02 0.02 0.04 0.04 0.04 0.04 0.04 0.05 0.04 0.05 0.05 0.05 0.03 0.02 0.02 0.02 0.03 0.02 0.02 0.02 0.03 0.03 0.03 0.05 0.06 0.05
0.02 0.02 0.02 0.02 0.02 0.02 0.01 0.01 0.01 0.01 0.01 0.01 0.01 0.01 0.01 0.01 0.01 0.01 0.01 0.02 0.02 0.02 0.02 0.02 0.03 0.03 0.03 0.04 0.03 0.03 0.02 0.01 0.02 0.02 0.03 0.02 0.02 0.02 0.03 0.03 0.03 0.04 0.04
0.02 0.02 0.02 0.02 0.02 0.02 0.02 0.02 0.01 0.01 0.01 0.01 0.02 0.02 0.01 0.01 0.01 0.01 0.01 0.01 0.01 0.01 0.01 0.01 0.02 0.02 0.02 0.02 0.03 0.02 0.02 0.02 0.02 0.03 0.03 0.03 0.02 0.03 0.03 0.03 0.04 0.05 0.05
0.01 0.01 0.01 0.02 0.02 0.01 0.02 0.02 0.02 0.02 0.02 0.02 0.03 0.02 0.01 0.00 0.01 0.01 0.01 0.01 0.01 0.01 0.01 0.02 0.02 0.03 0.03 0.03 0.03 0.03 0.04 0.04 0.03 0.03 0.03 0.03 0.02 0.02 0.02 0.03 0.04 0.04 0.05
0.04 0.04 0.03 0.02 0.01 0.01 0.01 0.03 0.03 0.03 0.03 0.03 0.02 0.02 0.01 0.01 0.01 0.01 0.01 0.02 0.02 0.02 0.02 0.02 0.03 0.03 0.03 0.03 0.03 0.04 0.04 0.04 0.03 0.03 0.03 0.04 0.05 0.03 0.03 0.03 0.03 0.04 0.06
0.04 0.05 0.04 0.03 0.02 0.02 0.02 0.03 0.03 0.03 0.02 0.02 0.01 0.01 0.01 0.01 0.01 0.02 0.02 0.01 0.01 0.01 0.02 0.02 0.03 0.04 0.05 0.05 0.05 0.04 0.03 0.03 0.02 0.03 0.04 0.04 0.06 0.05 0.04 0.04 0.04 0.04 0.05
0.01 0.01 0.02 0.02 0.02 0.02 0.02 0.02 0.02 0.01 0.01 0.01 0.01 0.01 0.01 0.01 0.01 0.02 0.02 0.02 0.02 0.02 0.02 0.02 0.04 0.06 0.05 0.04 0.03 0.03 0.03 0.03 0.04 0.04 0.05 0.05 0.06 0.08 0.05 0.04 0.03 0.03 0.03
0.01 0.01 0.01 0.02 0.02 0.02 0.02 0.02 0.02 0.02 0.02 0.02 0.01 0.01 0.01 0.01 0.01 0.01 0.02 0.03 0.03 0.03 0.02 0.02 0.04 0.04 0.04 0.03 0.03 0.03 0.04 0.04 0.04 0.05 0.05 0.05 0.06 0.07 0.08 0.06 0.04 0.03 0.03
0.03 0.03 0.02 0.02 0.02 0.02 0.02 0.02 0.03 0.02 0.03 0.04 0.04 0.03 0.01 0.01 0.01 0.01 0.02 0.03 0.03 0.03 0.02 0.02 0.03 0.04 0.05 0.05 0.04 0.04 0.05 0.04 0.04 0.03 0.04 0.05 0.05 0.06 0.07 0.06 0.04 0.03 0.03
0.05 0.05 0.04 0.04 0.04 0.03 0.03 0.03 0.04 0.03 0.03 0.02 0.02 0.02 0.02 0.02 0.02 0.02 0.03 0.03 0.02 0.02 0.02 0.03 0.04 0.05 0.05 0.06 0.06 0.06 0.05 0.05 0.04 0.04 0.04 0.05 0.05 0.05 0.06 0.05 0.05 0.04 0.03
0.08 0.10 0.09 0.08 0.06 0.06 0.05 0.04 0.04 0.04 0.03 0.02 0.02 0.02 0.02 0.02 0.02 0.03 0.04 0.03 0.02 0.02 0.03 0.03 0.03 0.04 0.04 0.06 0.07 0.07 0.07 0.06 0.06 0.06 0.06 0.07 0.08 0.08 0.06 0.05 0.05 0.05 0.04
0.06 0.09 0.10 0.09 0.07 0.05 0.05 0.05 0.04 0.04 0.05 0.04 0.03 0.03 0.03 0.03 0.04 0.04 0.03 0.03 0.04 0.04 0.04 0.05 0.04 0.04 0.04 0.05 0.06 0.08 0.08 0.08 0.08 0.07 0.07 0.08 0.09 0.11 0.11 0.08 0.06 0.05 0.04
0.03 0.04 0.04 0.04 0.04 0.04 0.05 0.07 0.06 0.06 0.07 0.07 0.07 0.07 0.08 0.08 0.07 0.05 0.04 0.05 0.06 0.07 0.07 0.07 0.07 0.07 0.07 0.06 0.06 0.08 0.09 0.10 0.10 0.10 0.10 0.10 0.10 0.11 0.12 0.12 0.10 0.08 0.05
0.02 0.02 0.03 0.03 0.03 0.03 0.04 0.05 0.06 0.06 0.06 0.07 0.07 0.08 0.09 0.06 0.04 0.04 0.05 0.06 0.07 0.08 0.09 0.09 0.09 0.09 0.08 0.07 0.07 0.07 0.08 0.09 0.10 0.10 0.11 0.11 0.12 0.12 0.12 0.12 0.10 0.09 0.07
0.03 0.03 0.02 0.03 0.03 0.03 0.03 0.03 0.05 0.05 0.04 0.05 0.07 0.07 0.06 0.04 0.04 0.04 0.04 0.05 0.07 0.07 0.07 0.07 0.08 0.08 0.09 0.10 0.10 0.09 0.08 0.08 0.09 0.09 0.10 0.10 0.10 0.10 0.09 0.09 0.09 0.08 0.08
0.04 0.04 0.04 0.04 0.02 0.02 0.02 0.03 0.04 0.05 0.04 0.04 0.05 0.04 0.03 0.03 0.03 0.04 0.04 0.05 0.06 0.06 0.06 0.06 0.06 0.06 0.06 0.06 0.06 0.06 0.07 0.07 0.08 0.08 0.10 0.11 0.12 0.12 0.10 0.08 0.08 0.08 0.08
0.03 0.04 0.05 0.05 0.04 0.03 0.03 0.03 0.04 0.06 0.06 0.05 0.05 0.04 0.04 0.04 0.04 0.05 0.06 0.06 0.06 0.05 0.05 0.04 0.04 0.04 0.04 0.05 0.05 0.05 0.05 0.05 0.05 0.06 0.06 0.07 0.08 0.08 0.08 0.08 0.07 0.08 0.08
0.03 0.04 0.06 0.06 0.05 0.05 0.05 0.04 0.04 0.05 0.06 0.07 0.07 0.06 0.07 0.06 0.06 0.05 0.06 0.07 0.06 0.05 0.04 0.03 0.03 0.03 0.02 0.03 0.03 0.04 0.04 0.04 0.04 0.04 0.04 0.04 0.05 0.05 0.05 0.05 0.05 0.05 0.06
MSLP
1016.56 1016.66 1016.84 1017.08 1017.35 1017.63 1017.88 1018.10 1018.27 1018.40 1018.50 1018.57 1018.63 1018.68 1018.71 1018.74 1018.73 1018.71 1018.64 1018.55 1018.44 1018.31 1018.19 1018.09 1018.03 1018.00 1018.01 1018.06 1018.14 1018.22 1018.30 1018.35 1018.38 1018.37 1018.32 1018.23 1018.12 1017.98 1017.84 1017.71 1017.58 1017.47 1017.39
1016.76 1016.84 1017.00 1017.24 1017.51 1017.81 1018.09 1018.34 1018.56 1018.74 1018.88 1018.99 1019.08 1019.15 1019.21 1019.25 1019.26 1019.24 1019.19 1019.11 1019.01 1018.89 1018.76 1018.65 1018.56 1018.49 1018.46 1018.46 1018.49 1018.53 1018.56 1018.59 1018.60 1018.57 1018.51 1018.41 1018.29 1018.14 1017.97 1017.81 1017.66 1017.53 1017.43
1016.95 1017.03 1017.20 1017.44 1017.72 1018.03 1018.34 1018.63 1018.90 1019.12 1019.31 1019.47 1019.60 1019.70 1019.78 1019.84 1019.86 1019.86 1019.82 1019.75 1019.65 1019.54 1019.41 1019.28 1019.17 1019.08 1019.02 1018.98 1018.96 1018.96 1018.97 1018.97 1018.95 1018.90 1018.82 1018.71 1018.56 1018.39 1018.20 1018.00 1017.82 1017.67 1017.55
1017.13 1017.25 1017.44 1017.70 1018.00 1018.33 1018.66 1018.99 1019.30 1019.57 1019.81 1020.02 1020.19 1020.34 1020.44 1020.52 1020.55 1020.56 1020.53 1020.46 1020.36 1020.24 1020.11 1019.98 1019.86 1019.75 1019.66 1019.59 1019.55 1019.51 1019.49 1019.46 1019.42 1019.35 1019.25 1019.12 1018.95 1018.75 1018.53 1018.31 1018.10 1017.91 1017.76
1017.29 1017.47 1017.71 1018.01 1018.34 1018.69 1019.05 1019.41 1019.76 1020.08 1020.37 1020.62 1020.84 1021.01 1021.15 1021.24 1021.28 1021.29 1021.25 1021.18 1021.08 1020.96 1020.82 1020.68 1020.55 1020.43 1020.33 1020.24 1020.18 1020.12 1020.07 1020.02 1019.95 1019.86 1019.75 1019.59 1019.40 1019.19 1018.95 1018.70 1018.45 1018.23 1018.05
1017.41 1017.68 1018.00 1018.34 1018.70 1019.08 1019.47 1019.86 1020.23 1020.59 1020.91 1021.21 1021.46 1021.66 1021.81 1021.91 1021.96 1021.96 1021.92 1021.84 1021.73 1021.60 1021.46 1021.32 1021.19 1021.07 1020.96 1020.87 1020.79 1020.72 1020.65 1020.58 1020.49 1020.38 1020.24 1020.07 1019.87 1019.63 1019.38 1019.11 1018.85 1018.60 1018.39
1017.47 1017.85 1018.25 1018.65 1019.06 1019.46 1019.87 1020.28 1020.67 1021.05 1021.39 1021.71 1021.98 1022.19 1022.35 1022.45 1022.50 1022.49 1022.43 1022.34 1022.23 1022.10 1021.96 1021.83 1021.70 1021.59 1021.49 1021.40 1021.32 1021.24 1021.15 1021.06 1020.95 1020.82 1020.66 1020.48 1020.26 1020.02 1019.76 1019.49 1019.22 1018.96 1018.73
1017.46 1017.95 1018.43 1018.90 1019.35 1019.78 1020.21 1020.62 1021.02 1021.40 1021.75 1022.07 1022.34 1022.55 1022.71 1022.80 1022.83 1022.82 1022.75 1022.66 1022.54 1022.42 1022.29 1022.18 1022.07 1021.98 1021.89 1021.81 1021.73 1021.64 1021.54 1021.43 1021.30 1021.15 1020.97 1020.77 1020.55 1020.31 1020.06 1019.79 1019.53 1019.27 1019.02
1017.40 1017.99 1018.54 1019.07 1019.55 1020.01 1020.45 1020.86 1021.25 1021.62 1021.97 1022.27 1022.53 1022.73 1022.87 1022.95 1022.97 1022.95 1022.88 1022.79 1022.68 1022.58 1022.48 1022.39 1022.31 1022.24 1022.17 1022.10 1022.03 1021.94 1021.82 1021.69 1021.53 1021.36 1021.16 1020.95 1020.72 1020.49 1020.24 1020.00 1019.75 1019.51 1019.27
1017.30 1017.97 1018.59 1019.16 1019.68 1020.15 1020.59 1021.00 1021.39 1021.74 1022.07 1022.35 1022.59 1022.78 1022.90 1022.97 1022.98 1022.95 1022.89 1022.81 1022.72 1022.64 1022.57 1022.51 1022.46 1022.42 1022.38 1022.32 1022.24 1022.14 1022.02 1021.86 1021.68 1021.48 1021.26 1021.04 1020.81 1020.58 1020.35 1020.13 1019.91 1019.68 1019.46
1017.21 1017.93 1018.59 1019.19 1019.73 1020.22 1020.67 1021.07 1021.45 1021.79 1022.10 1022.38 1022.60 1022.77 1022.88 1022.94 1022.95 1022.93 1022.88 1022.81 1022.75 1022.69 1022.65 1022.62 1022.59 1022.57 1022.54 1022.49 1022.41 1022.30 1022.15 1021.97 1021.77 1021.55 1021.32 1021.08 1020.85 1020.63 1020.42 1020.22 1020.03 1019.84 1019.63
1017.15 1017.88 1018.56 1019.18 1019.74 1020.24 1020.69 1021.10 1021.48 1021.82 1022.13 1022.39 1022.61 1022.77 1022.89 1022.95 1022.97 1022.95 1022.92 1022.87 1022.82 1022.78 1022.75 1022.74 1022.73 1022.71 1022.68 1022.62 1022.53 1022.41 1022.24 1022.05 1021.83 1021.60 1021.36 1021.12 1020.90 1020.69 1020.50 1020.33 1020.16 1019.99 1019.81
1017.13 1017.86 1018.53 1019.15 1019.72 1020.22 1020.69 1021.11 1021.49 1021.84 1022.16 1022.43 1022.66 1022.84 1022.96 1023.04 1023.07 1023.07 1023.05 1023.01 1022.97 1022.93 1022.91 1022.88 1022.86 1022.83 1022.78 1022.71 1022.60 1022.46 1022.29 1022.09 1021.87 1021.64 1021.40 1021.18 1020.97 1020.78 1020.60 1020.45 1020.30 1020.15 1019.98
1017.16 1017.86 1018.51 1019.12 1019.67 1020.18 1020.66 1021.09 1021.49 1021.86 1022.20 1022.50 1022.74 1022.95 1023.10 1023.19 1023.25 1023.26 1023.24 1023.20 1023.16 1023.10 1023.05 1023.00 1022.94 1022.88 1022.80 1022.71 1022.58 1022.44 1022.27 1022.07 1021.86 1021.65 1021.44 1021.24 1021.05 1020.88 1020.72 1020.58 1020.44 1020.30 1020.14
1017.23 1017.88 1018.49 1019.07 1019.61 1020.11 1020.59 1021.03 1021.45 1021.84 1022.20 1022.53 1022.81 1023.04 1023.22 1023.35 1023.42 1023.44 1023.42 1023.38 1023.30 1023.22 1023.12 1023.02 1022.92 1022.81 1022.70 1022.57 1022.43 1022.29 1022.13 1021.96 1021.79 1021.61 1021.44 1021.27 1021.11 1020.96 1020.82 1020.69 1020.55 1020.41 1020.25
1017.33 1017.91 1018.47 1019.01 1019.51 1019.99 1020.45 1020.90 1021.32 1021.73 1022.11 1022.46 1022.78 1023.04 1023.25 1023.40 1023.48 1023.51 1023.49 1023.42 1023.31 1023.18 1023.03 1022.88 1022.72 1022.57 1022.42 1022.27 1022.13 1022.00 1021.87 1021.74 1021.61 1021.49 1021.36 1021.24 1021.11 1020.98 1020.85 1020.72 1020.57 1020.42 1020.25
1017.42 1017.95 1018.44 1018.92 1019.38 1019.81 1020.24 1020.66 1021.08 1021.48 1021.87 1022.24 1022.57 1022.86 1023.09 1023.25 1023.35 1023.38 1023.35 1023.26 1023.12 1022.94 1022.75 1022.54 1022.34 1022.14 1021.97 1021.82 1021.69 1021.58 1021.49 1021.42 1021.35 1021.28 1021.20 1021.12 1021.02 1020.90 1020.78 1020.63 1020.47 1020.30 1020.12
1017.50 1017.95 1018.39 1018.80 1019.19 1019.57 1019.95 1020.33 1020.71 1021.09 1021.47 1021.83 1022.17 1022.46 1022.70 1022.88 1022.98 1023.01 1022.97 1022.86 1022.70 1022.49 1022.27 1022.03 1021.80 1021.59 1021.41 1021.27 1021.17 1021.10 1021.06 1021.04 1021.02 1021.00 1020.97 1020.91 1020.83 1020.71 1020.58 1020.42 1020.23 1020.04 1019.85
1017.52 1017.92 1018.29 1018.63 1018.95 1019.27 1019.59 1019.91 1020.24 1020.58 1020.92 1021.26 1021.58 1021.87 1022.10 1022.28 1022.39 1022.42 1022.38 1022.27 1022.09 1021.88 1021.65 1021.40 1021.18 1020.98 1020.82 1020.71 1020.65 1020.63 1020.64 1020.66 1020.69 1020.71 1020.70 1020.65 1020.56 1020.43 1020.27 1020.08 1019.88 1019.66 1019.46
1017.48 1017.83 1018.14 1018.42 1018.68 1018.93 1019.18 1019.43 1019.70 1019.99 1020.29 1020.59 1020.88 1021.14 1021.37 1021.54 1021.64 1021.68 1021.64 1021.54 1021.39 1021.19 1020.98 1020.77 1020.57 1020.41 1020.30 1020.24 1020.22 1020.25 1020.30 1020.36 1020.42 1020.44 1020.43 1020.37 1020.26 1020.10 1019.90 1019.68 1019.45 1019.22 1019.01
1017.34 1017.66 1017.93 1018.17 1018.37 1018.57 1018.75 1018.95 1019.17 1019.39 1019.64 1019.89 1020.14 1020.38 1020.58 1020.73 1020.84 1020.88 1020.86 1020.79 1020.66 1020.51 1020.35 1020.19 1020.06 1019.96 1019.91 1019.91 1019.95 1020.02 1020.10 1020.18 1020.23 1020.25 1020.21 1020.11 1019.96 1019.75 1019.51 1019.26 1019.01 1018.77 1018.57
1017.08 1017.39 1017.65 1017.86 1018.04 1018.20 1018.35 1018.50 1018.67 1018.85 1019.04 1019.25 1019.46 1019.66 1019.83 1019.97 1020.07 1020.12 1020.12 1020.08 1020.01 1019.92 1019.82 1019.74 1019.69 1019.67 1019.69 1019.75 1019.83 1019.94 1020.04 1020.11 1020.15 1020.13 1020.05 1019.90 1019.70 1019.44 1019.17 1018.89 1018.62 1018.39 1018.20
1016.70 1017.02 1017.29 1017.50 1017.68 1017.83 1017.97 1018.10 1018.24 1018.39 1018.55 1018.71 1018.88 1019.04 1019.18 1019.30 1019.39 1019.45 1019.47 1019.47 1019.45 1019.42 1019.41 1019.41 1019.44 1019.50 1019.60 1019.72 1019.85 1019.98 1020.08 1020.14 1020.15 1020.09 1019.95 1019.75 1019.49 1019.20 1018.89 1018.59 1018.33 1018.11 1017.96
1016.22 1016.56 1016.85 1017.09 1017.29 1017.47 1017.62 1017.75 1017.89 1018.02 1018.15 1018.29 1018.41 1018.54 1018.65 1018.74 1018.81 1018.87 1018.91 1018.94 1018.97 1019.01 1019.07 1019.15 1019.27 1019.41 1019.57 1019.75 1019.92 1020.06 1020.16 1020.21 1020.18 1020.07 1019.89 1019.64 1019.35 1019.02 1018.70 1018.40 1018.15 1017.97 1017.86
1015.66 1016.03 1016.35 1016.63 1016.87 1017.08 1017.26 1017.42 1017.56 1017.70 1017.81 1017.92 1018.02 1018.11 1018.18 1018.24 1018.30 1018.34 1018.39 1018.44 1018.52 1018.61 1018.74 1018.90 1019.09 1019.31 1019.54 1019.76 1019.96 1020.12 1020.22 1020.25 1020.20 1020.06 1019.84 1019.56 1019.24 1018.90 1018.58 1018.30 1018.08 1017.94 1017.87
1015.07 1015.46 1015.82 1016.13 1016.42 1016.66 1016.88 1017.07 1017.23 1017.37 1017.48 1017.57 1017.64 1017.69 1017.73 1017.76 1017.78 1017.82 1017.86 1017.94 1018.04 1018.18 1018.37 1018.59 1018.85 1019.14 1019.42 1019.69 1019.93 1020.11 1020.22 1020.24 1020.16 1020.01 1019.77 1019.48 1019.15 1018.82 1018.52 1018.27 1018.08 1017.98 1017.95
Thickness
5790 5787 5785 5782 5780 5778 5776 5775 5773 5771 5769 5768 5767 5765 5764 5763 5763 5760 5760 5758 5756 5755 5754 5752 5751 5750 5751 5751 5749 5746 5744 5740 5735 5737 5738 5735 5730 5728 5726 5724 5722 5720 5718
5788 5785 5782 5779 5778 5775 5774 5772 5770 5768 5767 5765 5764 5762 5761 5760 5759 5757 5755 5754 5752 5750 5749 5748 5747 5747 5744 5743 5742 5740 5738 5735 5732 5728 5730 5730 5726 5725 5722 5720 5719 5718 5716
5785 5782 5778 5776 5774 5772 5770 5769 5768 5765 5764 5763 5760 5758 5757 5757 5755 5753 5751 5750 5748 5747 5746 5744 5742 5741 5738 5738 5736 5735 5734 5733 5729 5726 5726 5725 5723 5721 5718 5716 5716 5713 5712
5780 5777 5774 5772 5771 5769 5767 5765 5764 5762 5760 5758 5756 5755 5753 5752 5751 5749 5747 5745 5743 5742 5741 5740 5738 5736 5733 5731 5730 5728 5728 5726 5724 5723 5721 5719 5717 5715 5713 5711 5709 5709 5707
5774 5772 5769 5767 5766 5764 5762 5761 5759 5758 5757 5754 5752 5750 5749 5748 5746 5743 5741 5741 5738 5737 5736 5734 5733 5730 5727 5725 5726 5724 5722 5720 5719 5717 5715 5713 5711 5707 5706 5706 5703 5702 5700
5767 5766 5764 5762 5760 5759 5757 5756 5754 5753 5751 5749 5747 5745 5743 5743 5738 5735 5733 5734 5732 5731 5729 5728 5727 5725 5722 5719 5716 5715 5713 5712 5712 5710 5709 5705 5703 5701 5699 5699 5696 5694 5691
5761 5759 5758 5756 5754 5753 5753 5750 5748 5746 5744 5742 5741 5739 5736 5734 5730 5728 5726 5726 5727 5725 5723 5722 5723 5723 5718 5716 5713 5709 5707 5705 5703 5703 5702 5700 5698 5697 5693 5691 5688 5687 5684
5754 5752 5751 5749 5747 5746 5744 5742 5741 5740 5738 5736 5734 5732 5729 5727 5723 5721 5719 5721 5721 5719 5718 5717 5715 5714 5713 5709 5708 5707 5704 5702 5699 5698 5696 5695 5694 5690 5686 5684 5682 5681 5680
5746 5744 5743 5742 5740 5738 5736 5734 5733 5731 5730 5728 5727 5725 5722 5720 5716 5714 5712 5715 5714 5713 5713 5711 5709 5707 5703 5700 5700 5699 5697 5697 5694 5691 5689 5687 5685 5682 5679 5678 5677 5675 5674
5738 5736 5735 5733 5731 5730 5728 5726 5725 5724 5722 5721 5720 5718 5716 5714 5710 5706 5703 5709 5708 5708 5707 5705 5702 5699 5695 5692 5692 5691 5690 5690 5688 5687 5683 5681 5680 5677 5674 5671 5671 5669 5668
5731 5728 5726 5724 5723 5722 5720 5718 5716 5715 5715 5713 5711 5710 5709 5707 5704 5700 5697 5700 5701 5701 5701 5701 5698 5691 5687 5685 5683 5684 5683 5682 5681 5680 5679 5678 5676 5674 5671 5668 5666 5663 5661
5722 5720 5717 5716 5715 5715 5711 5709 5708 5707 5706 5705 5703 5702 5702 5700 5697 5694 5690 5688 5689 5691 5692 5692 5690 5683 5679 5677 5676 5675 5674 5672 5675 5674 5673 5672 5670 5668 5665 5663 5659 5657 5654
5711 5709 5708 5707 5706 5705 5703 5701 5700 5699 5699 5698 5696 5695 5695 5694 5691 5686 5683 5681 5679 5680 5683 5680 5677 5674 5672 5672 5669 5667 5666 5668 5668 5667 5666 5665 5663 5660 5657 5655 5653 5650 5648
5702 5700 5699 5698 5698 5696 5695 5696 5694 5693 5691 5690 5688 5687 5686 5685 5683 5681 5678 5675 5671 5672 5673 5671 5667 5666 5665 5665 5664 5664 5663 5663 5661 5660 5659 5658 5655 5653 5650 5649 5647 5644 5642
5693 5692 5692 5692 5691 5688 5688 5686 5686 5685 5683 5679 5679 5678 5676 5675 5671 5665 5665 5666 5665 5664 5661 5663 5662 5662 5662 5662 5661 5660 5658 5656 5654 5653 5651 5649 5648 5646 5644 5642 5639 5637 5635
5685 5684 5685 5684 5683 5682 5680 5678 5674 5673 5669 5667 5665 5664 5666 5662 5658 5655 5653 5651 5650 5649 5651 5655 5655 5655 5654 5654 5653 5652 5651 5648 5646 5645 5643 5641 5640 5638 5636 5634 5632 5630 5628
5675 5675 5676 5675 5674 5673 5671 5670 5668 5665 5660 5657 5656 5654 5652 5649 5647 5645 5644 5642 5641 5640 5644 5648 5648 5647 5647 5646 5645 5644 5643 5641 5638 5637 5635 5633 5632 5630 5628 5627 5625 5622 5621
5665 5665 5665 5665 5665 5664 5663 5662 5662 5660 5658 5657 5651 5647 5644 5641 5638 5637 5636 5634 5637 5637 5640 5640 5640 5639 5638 5637 5637 5636 5634 5633 5630 5628 5627 5625 5624 5622 5621 5619 5617 5614 5613
5657 5657 5656 5656 5656 5657 5655 5655 5655 5653 5652 5651 5650 5645 5638 5635 5632 5629 5628 5631 5633 5633 5633 5632 5632 5631 5631 5630 5628 5627 5625 5624 5622 5620 5619 5617 5616 5615 5613 5612 5610 5604 5603
5648 5646 5646 5648 5649 5649 5648 5647 5647 5646 5645 5644 5643 5640 5634 5631 5629 5625 5623 5624 5625 5625 5624 5623 5623 5622 5622 5622 5620 5618 5616 5614 5613 5612 5610 5609 5609 5607 5604 5602 5601 5598 5596
5642 5641 5638 5639 5641 5640 5640 5640 5639 5639 5638 5637 5635 5632 5625 5626 5625 5623 5620 5618 5617 5617 5616 5615 5613 5613 5613 5612 5612 5611 5608 5607 5605 5604 5602 5601 5599 5597 5596 5593 5592 5590 5588
5634 5634 5633 5633 5633 5633 5632 5632 5632 5631 5631 5629 5627 5625 5618 5620 5621 5619 5616 5613 5611 5609 5608 5607 5606 5605 5605 5604 5602 5601 5600 5599 5598 5597 5595 5593 5591 5589 5587 5585 5583 5581 5579
5625 5625 5625 5625 5625 5622 5623 5624 5623 5623 5623 5622 5621 5619 5616 5614 5614 5612 5611 5608 5606 5604 5602 5600 5599 5598 5596 5595 5593 5592 5591 5590 5589 5588 5586 5585 5582 5580 5578 5576 5574 5572 5569
5616 5617 5617 5616 5616 5616 5615 5615 5615 5615 5615 5615 5613 5612 5610 5609 5608 5607 5605 5603 5600 5598 5596 5594 5592 5590 5587 5585 5585 5584 5582 5579 5578 5577 5577 5575 5573 5571 5569 5566 5564 5562 5559
5609 5608 5608 5607 5607 5607 5606 5607 5607 5607 5607 5606 5605 5604 5603 5602 5601 5600 5598 5596 5593 5592 5590 5588 5585 5583 5580 5578 5576 5575 5571 5569 5567 5566 5566 5566 5564 5562 5560 5558 5556 5553 5550
5600 5600 5599 5599 5599 5598 5598 5598 5598 5597 5598 5598 5597 5595 5594 5593 5592 5591 5589 5587 5586 5584 5582 5581 5578 5575 5573 5571 5568 5565 5562 5560 5558 5556 5556 5556 5554 5552 5550 5548 5546 5543 5541